Location: Buchberg
(46.9333°N, 15.8500°E)
Time: 04:30:29
(UTC+00:00)

Cosmos 614 Rocket - Pass Details

Date: 14 July 2020
Orbit: 732 x 764 km, 74.1° (Epoch: 11 August)

Event Time Altitude Azimuth Distance (km) Brightness Sun altitude
Exits shadow 00:43:21 32° 214° (SW) 1,242 4.5 -17.8°
Maximum altitude 00:45:41 75° 293° (WNW) 772 3.9 -17.6°
Drops below altitude 10° 00:50:50 10° 19° (NNE) 2,271 7.7 -17.2°
Sets 00:53:13 0° 21° (NNE) 3,204 9.0 -17.0°
